SWR176D LSZH-WSSS

Flight info

Callsign SWR176D
Flight time N/A
Altitude 31000
Route DEGES Z2 UMVEG DCT DIMLO DCT TEGRI/N0491F330 DCT VEVIN DCT DINRO DCT UDROS DCT ABSAX DCT KARDE DCT REBLO M11 RODAR A909 ABDAN/N0493F350 A846 RANAH L750 ZB G202 RK P628 IBANI L510 BIDEX/N0494F370 L510 GIVAL P628 VPL Y503 RINBA Y507 MAKNA Y511 TOPOR A464 ARAMA DCT TEBUN TEBUN1A
Aircraft B77W/H-SDE1E2E3FGHIJ2J3J4J5M1RWXY/LB1D1

Departure

Time N/A
Airport Zürich Airport (LSZH)

Arrival

Time 2026-05-01 08:33
Airport Singapore Changi Airport (WSSS)
Time Latitude Longitude Altitude Speed Heading
2026-05-01 07:23 6.30452 99.79617 36829 ft 476 kts 133°
2026-05-01 07:24 6.23488 99.86763 36827 ft 476 kts 133°
2026-05-01 07:24 6.18844 99.91518 36823 ft 476 kts 133°
2026-05-01 07:25 6.14194 99.96277 36828 ft 477 kts 133°
2026-05-01 07:25 6.09572 100.01002 36823 ft 475 kts 133°
2026-05-01 07:26 6.04934 100.05745 36827 ft 475 kts 133°
2026-05-01 07:26 6.00275 100.10506 36824 ft 475 kts 133°
2026-05-01 07:27 5.95665 100.15216 36822 ft 477 kts 133°
2026-05-01 07:27 5.91010 100.19970 36825 ft 475 kts 133°
2026-05-01 07:28 5.86371 100.24708 36822 ft 477 kts 133°
2026-05-01 07:28 5.81691 100.29485 36821 ft 476 kts 133°
2026-05-01 07:29 5.77045 100.34227 36822 ft 477 kts 133°
2026-05-01 07:29 5.72408 100.38958 36824 ft 477 kts 133°
2026-05-01 07:30 5.67747 100.43713 36829 ft 477 kts 133°
2026-05-01 07:30 5.63067 100.48486 36825 ft 478 kts 133°
2026-05-01 07:31 5.58392 100.53253 36824 ft 478 kts 133°
2026-05-01 07:32 5.46717 100.65151 36827 ft 479 kts 133°
2026-05-01 07:33 5.39463 100.72122 36842 ft 482 kts 142°
2026-05-01 07:33 5.30203 100.76023 36842 ft 490 kts 168°
2026-05-01 07:34 5.20043 100.77673 36850 ft 490 kts 169°
2026-05-01 07:35 5.13301 100.78742 36852 ft 490 kts 169°
2026-05-01 07:35 5.06531 100.79814 36852 ft 491 kts 169°
2026-05-01 07:36 4.99792 100.80881 36854 ft 491 kts 169°
2026-05-01 07:36 4.93020 100.81951 36857 ft 492 kts 169°
2026-05-01 07:37 4.82801 100.83566 36851 ft 491 kts 169°
2026-05-01 07:37 4.75962 100.84646 36847 ft 490 kts 169°
2026-05-01 07:38 4.69173 100.85718 36842 ft 491 kts 169°
2026-05-01 07:39 4.59033 100.87319 36832 ft 490 kts 169°
2026-05-01 07:39 4.48863 100.88932 36815 ft 491 kts 167°
2026-05-01 07:40 4.42425 100.91110 36827 ft 486 kts 153°
2026-05-01 07:40 4.36323 100.94064 36825 ft 484 kts 152°
2026-05-01 07:41 4.30241 100.97026 36816 ft 486 kts 152°
2026-05-01 07:42 4.21096 101.01480 36824 ft 486 kts 152°
2026-05-01 07:42 4.14939 101.04478 36829 ft 487 kts 152°
2026-05-01 07:43 4.08831 101.07451 36836 ft 486 kts 152°
2026-05-01 07:43 3.99688 101.11900 36838 ft 485 kts 152°
2026-05-01 07:44 3.87480 101.17841 36837 ft 486 kts 152°
2026-05-01 07:45 3.81386 101.20805 36835 ft 487 kts 152°
2026-05-01 07:45 3.75264 101.23800 36833 ft 487 kts 151°
2026-05-01 07:46 3.69233 101.26949 36834 ft 487 kts 150°
2026-05-01 07:47 3.60195 101.31672 36833 ft 486 kts 150°
2026-05-01 07:47 3.54194 101.34801 36835 ft 485 kts 150°
2026-05-01 07:48 3.45171 101.39500 36836 ft 485 kts 150°
2026-05-01 07:48 3.39164 101.42625 36839 ft 486 kts 150°
2026-05-01 07:49 3.30084 101.47287 36842 ft 487 kts 153°
2026-05-01 07:50 3.23905 101.50113 36845 ft 487 kts 153°
2026-05-01 07:50 3.14642 101.54357 36841 ft 486 kts 153°
2026-05-01 07:51 3.08465 101.57199 36838 ft 486 kts 153°
2026-05-01 07:52 2.99213 101.61462 36826 ft 487 kts 153°
2026-05-01 07:52 2.93027 101.64314 36820 ft 487 kts 153°
2026-05-01 07:53 2.83764 101.68586 36825 ft 487 kts 153°
2026-05-01 07:53 2.77572 101.71442 36823 ft 487 kts 153°
2026-05-01 07:55 2.62268 101.78741 36829 ft 487 kts 152°
2026-05-01 07:56 2.49191 101.88984 36835 ft 481 kts 126°
2026-05-01 07:57 2.43136 101.96991 36836 ft 482 kts 125°
2026-05-01 07:58 2.35057 102.07706 36838 ft 482 kts 125°
2026-05-01 07:59 2.26982 102.18420 36833 ft 481 kts 125°
2026-05-01 08:00 2.14875 102.34485 36832 ft 481 kts 125°
2026-05-01 08:01 2.06819 102.45173 36831 ft 481 kts 125°
2026-05-01 08:02 2.00781 102.53183 36826 ft 482 kts 125°
2026-05-01 08:03 1.94729 102.61217 36825 ft 481 kts 125°
2026-05-01 08:03 1.88678 102.69251 36824 ft 481 kts 125°
2026-05-01 08:04 1.80619 102.79948 36826 ft 480 kts 125°
2026-05-01 08:05 1.74572 102.87980 36821 ft 481 kts 123°
2026-05-01 08:06 1.69652 102.96691 36824 ft 479 kts 116°
2026-05-01 08:07 1.63106 103.08241 36752 ft 476 kts 127°
2026-05-01 08:07 1.58257 103.12820 35099 ft 482 kts 144°
2026-05-01 08:08 1.55303 103.14516 34209 ft 485 kts 153°
2026-05-01 08:08 1.49040 103.17044 32506 ft 489 kts 157°
2026-05-01 08:09 1.42492 103.19614 30703 ft 517 kts 157°
2026-05-01 08:09 1.39154 103.20931 30037 ft 511 kts 157°
2026-05-01 08:09 1.35870 103.22228 29565 ft 503 kts 157°
2026-05-01 08:10 1.29422 103.24783 28431 ft 492 kts 157°
2026-05-01 08:10 1.23117 103.27621 27527 ft 475 kts 149°
2026-05-01 08:11 1.17532 103.30829 27282 ft 444 kts 148°
2026-05-01 08:11 1.12327 103.33834 26962 ft 414 kts 148°
2026-05-01 08:12 1.07437 103.36660 26631 ft 387 kts 148°
2026-05-01 08:12 1.05141 103.37987 26479 ft 372 kts 148°
2026-05-01 08:12 1.00862 103.40714 25856 ft 356 kts 134°
2026-05-01 08:13 0.99266 103.42632 25381 ft 351 kts 118°
2026-05-01 08:13 0.98236 103.44852 24885 ft 349 kts 107°
2026-05-01 08:13 0.97192 103.49638 23617 ft 356 kts 96°
2026-05-01 08:14 0.96896 103.52179 22930 ft 359 kts 95°
2026-05-01 08:14 0.96649 103.54699 22293 ft 359 kts 94°
2026-05-01 08:14 0.96530 103.57135 21652 ft 356 kts 85°
2026-05-01 08:14 0.96795 103.59583 21050 ft 349 kts 82°
2026-05-01 08:15 0.97120 103.61976 20448 ft 344 kts 82°
2026-05-01 08:15 0.97769 103.66651 19247 ft 334 kts 82°
2026-05-01 08:15 0.98092 103.68972 18654 ft 329 kts 82°
2026-05-01 08:16 0.98403 103.71205 18214 ft 326 kts 82°
2026-05-01 08:16 0.98718 103.73457 17693 ft 328 kts 82°
2026-05-01 08:16 0.99033 103.75712 17170 ft 327 kts 82°
2026-05-01 08:16 0.99347 103.77960 16657 ft 327 kts 82°
2026-05-01 08:17 0.99669 103.80263 16134 ft 326 kts 82°
2026-05-01 08:17 0.99980 103.82488 15626 ft 325 kts 82°
2026-05-01 08:17 1.00294 103.84737 15100 ft 323 kts 82°
2026-05-01 08:17 1.00585 103.86933 14593 ft 321 kts 82°
2026-05-01 08:18 1.00875 103.89166 14076 ft 318 kts 82°
2026-05-01 08:18 1.01445 103.93510 13126 ft 311 kts 82°
2026-05-01 08:19 1.02530 103.97620 12150 ft 305 kts 60°
2026-05-01 08:19 1.03698 103.99391 11688 ft 303 kts 56°
2026-05-01 08:19 1.04933 104.01116 11193 ft 300 kts 55°
2026-05-01 08:19 1.06144 104.02789 10730 ft 293 kts 55°
2026-05-01 08:20 1.07335 104.04436 10366 ft 292 kts 56°
2026-05-01 08:20 1.08522 104.06081 9992 ft 291 kts 56°
2026-05-01 08:20 1.09712 104.07730 9655 ft 289 kts 56°
2026-05-01 08:20 1.10907 104.09386 9309 ft 287 kts 56°
2026-05-01 08:21 1.12080 104.11012 8960 ft 285 kts 56°
2026-05-01 08:21 1.13289 104.12592 8604 ft 284 kts 46°
2026-05-01 08:21 1.14920 104.13715 8255 ft 285 kts 29°
2026-05-01 08:21 1.16752 104.14558 7957 ft 282 kts 25°
2026-05-01 08:22 1.18567 104.15331 7711 ft 277 kts 25°
2026-05-01 08:22 1.20336 104.16082 7474 ft 272 kts 25°
2026-05-01 08:22 1.22090 104.16828 7235 ft 268 kts 25°
2026-05-01 08:22 1.23790 104.17553 6982 ft 262 kts 25°
2026-05-01 08:23 1.25486 104.18276 6755 ft 255 kts 25°
2026-05-01 08:23 1.27128 104.18976 6524 ft 251 kts 25°
2026-05-01 08:23 1.28737 104.19662 6331 ft 246 kts 25°
2026-05-01 08:23 1.30310 104.20332 6141 ft 241 kts 25°
2026-05-01 08:24 1.31868 104.20977 5942 ft 239 kts 19°
2026-05-01 08:24 1.33542 104.21110 5740 ft 242 kts 355°
2026-05-01 08:24 1.35219 104.20827 5557 ft 243 kts 350°
2026-05-01 08:24 1.36878 104.20473 5410 ft 243 kts 350°
2026-05-01 08:25 1.38535 104.20116 5263 ft 242 kts 350°
2026-05-01 08:25 1.40208 104.19756 5125 ft 242 kts 350°
2026-05-01 08:25 1.41872 104.19398 4977 ft 241 kts 350°
2026-05-01 08:25 1.43529 104.19043 4836 ft 240 kts 350°
2026-05-01 08:26 1.45174 104.18690 4690 ft 237 kts 350°
2026-05-01 08:26 1.46772 104.18347 4545 ft 230 kts 350°
2026-05-01 08:26 1.48318 104.18015 4404 ft 223 kts 350°
2026-05-01 08:26 1.49826 104.17691 4258 ft 216 kts 350°
2026-05-01 08:27 1.51248 104.17223 4110 ft 211 kts 329°
2026-05-01 08:27 1.52221 104.16135 3985 ft 212 kts 298°
2026-05-01 08:27 1.52686 104.14711 3972 ft 215 kts 283°
2026-05-01 08:27 1.52965 104.13226 3898 ft 216 kts 281°
2026-05-01 08:28 1.53218 104.11740 3737 ft 215 kts 281°
2026-05-01 08:28 1.53473 104.10253 3540 ft 208 kts 281°
2026-05-01 08:28 1.53713 104.08859 3354 ft 203 kts 281°
2026-05-01 08:28 1.53923 104.07468 3158 ft 200 kts 270°
2026-05-01 08:29 1.53520 104.06147 2991 ft 200 kts 232°
2026-05-01 08:29 1.52482 104.05164 2975 ft 199 kts 211°
2026-05-01 08:29 1.51223 104.04546 2781 ft 202 kts 201°
2026-05-01 08:29 1.49911 104.04022 2521 ft 198 kts 200°
2026-05-01 08:30 1.48627 104.03499 2270 ft 194 kts 200°
2026-05-01 08:30 1.47392 104.02983 2031 ft 185 kts 200°
2026-05-01 08:30 1.46196 104.02483 1797 ft 184 kts 200°
2026-05-01 08:30 1.44991 104.01977 1556 ft 180 kts 200°
2026-05-01 08:31 1.43861 104.01504 1323 ft 167 kts 201°
2026-05-01 08:31 1.42824 104.01070 1123 ft 157 kts 200°
2026-05-01 08:31 1.41818 104.00648 916 ft 154 kts 200°
2026-05-01 08:31 1.40818 104.00247 684 ft 151 kts 200°
2026-05-01 08:32 1.39852 103.99848 493 ft 150 kts 201°
2026-05-01 08:32 1.38886 103.99442 317 ft 149 kts 202°
2026-05-01 08:32 1.37933 103.99033 127 ft 148 kts 202°
2026-05-01 08:32 1.36990 103.98632 40 ft 135 kts 203°
2026-05-01 08:33 1.36252 103.98319 43 ft 91 kts 203°
2026-05-01 08:33 1.35810 103.98135 38 ft 48 kts 194°
2026-05-01 08:33 1.35492 103.98130 35 ft 41 kts 173°
2026-05-01 08:33 1.35299 103.98112 36 ft 23 kts 202°
2026-05-01 08:34 1.35158 103.98053 37 ft 14 kts 204°
2026-05-01 08:34 1.35080 103.98019 38 ft 12 kts 203°
2026-05-01 08:34 1.35002 103.97985 38 ft 11 kts 203°
2026-05-01 08:34 1.34935 103.97956 39 ft 9 kts 203°
2026-05-01 08:35 1.34880 103.97934 40 ft 7 kts 202°
2026-05-01 08:35 1.34837 103.97935 40 ft 6 kts 138°
2026-05-01 08:35 1.34813 103.97984 40 ft 8 kts 111°
2026-05-01 08:35 1.34787 103.98046 40 ft 10 kts 113°
2026-05-01 08:36 1.34756 103.98118 39 ft 12 kts 113°
2026-05-01 08:36 1.34723 103.98193 41 ft 11 kts 113°
2026-05-01 08:36 1.34692 103.98263 42 ft 10 kts 113°
2026-05-01 08:36 1.34663 103.98332 43 ft 10 kts 112°
2026-05-01 08:37 1.34632 103.98406 43 ft 12 kts 113°
2026-05-01 08:37 1.34596 103.98491 42 ft 13 kts 112°
2026-05-01 08:37 1.34558 103.98576 41 ft 13 kts 113°
2026-05-01 08:37 1.34522 103.98662 41 ft 13 kts 113°
2026-05-01 08:38 1.34485 103.98747 40 ft 13 kts 113°
2026-05-01 08:38 1.34452 103.98824 40 ft 8 kts 113°
2026-05-01 08:38 1.34452 103.98862 39 ft 4 kts 51°
2026-05-01 08:38 1.34487 103.98882 40 ft 6 kts 24°
2026-05-01 08:39 1.34527 103.98901 41 ft 6 kts 24°
2026-05-01 08:39 1.34567 103.98918 43 ft 6 kts 23°
2026-05-01 08:39 1.34613 103.98938 44 ft 8 kts 23°
2026-05-01 08:39 1.34670 103.98962 44 ft 9 kts 23°
2026-05-01 08:40 1.34775 103.99007 47 ft 7 kts 23°
2026-05-01 08:40 1.34825 103.99028 49 ft 7 kts 23°
2026-05-01 08:40 1.34870 103.99020 50 ft 6 kts 321°
2026-05-01 08:41 1.34904 103.98995 51 ft 5 kts 328°
2026-05-01 08:41 1.34941 103.98978 52 ft 6 kts 343°
2026-05-01 08:41 1.34984 103.98974 53 ft 4 kts 14°
2026-05-01 08:41 1.35005 103.98997 53 ft 5 kts 71°
2026-05-01 08:42 1.35011 103.99030 52 ft 5 kts 82°
2026-05-01 08:42 1.35012 103.99043 51 ft 1 kts 82°
2026-05-01 08:42 1.35013 103.99046 51 ft 0 kts 82°